KB4ZQC Weather Reports


time (UTC)temp
C
wind
direction
speed
KPH
gust
KPH
rain 1hr
cm
rain 24hr
cm
rain mn
cm
humidity
%
barometer
mb
20200531075819 24 86 0.0 0.0 0.00 0.00 0.00 91 1015.1
20200531075321 24 86 0.0 0.0 0.00 0.00 0.00 91 1015.0
20200531074824 24 86 0.0 0.0 0.00 0.00 0.00 91 1015.0
20200531074326 24 86 0.0 0.0 0.00 0.00 0.00 91 1015.0
20200531073828 25 86 0.0 0.0 0.00 0.00 0.00 90 1015.0
20200531073328 25 86 0.0 0.0 0.00 0.00 0.00 90 1015.0
20200531072829 25 86 0.0 0.0 0.00 0.00 0.00 90 1015.0
20200531072315 25 86 0.0 0.0 0.00 0.00 0.00 91 1015.2
20200531071817 25 86 0.0 0.0 0.00 0.00 0.00 91 1015.2
20200531071318 25 86 0.0 0.0 0.00 0.00 0.00 90 1015.3
20200531070819 25 86 0.0 0.0 0.00 0.00 0.00 90 1015.3
20200531070320 25 86 0.0 0.0 0.00 0.00 0.00 90 1015.3
20200531065819 25 86 0.0 0.0 0.00 0.00 0.00 90 1015.4
20200531065333 25 86 0.0 0.0 0.00 0.00 0.00 90 1015.5
20200531064830 25 86 0.0 0.0 0.00 0.00 0.00 90 1015.6
20200531064327 25 86 0.0 0.0 0.00 0.00 0.00 90 1015.6
20200531063824 25 86 0.0 0.0 0.00 0.00 0.00 90 1015.7
20200531063333 25 86 0.0 0.0 0.00 0.00 0.00 90 1015.8
20200531062815 25 86 0.0 0.0 0.00 0.00 0.00 90 1015.7
20200531062317 25 86 0.0 0.0 0.00 0.00 0.00 90 1015.7
20200531061819 25 86 0.0 0.0 0.00 0.00 0.00 90 1015.8
20200531061320 25 86 0.0 0.0 0.00 0.00 0.00 90 1015.8
20200531060817 25 86 0.0 0.0 0.00 0.03 0.00 90 1015.9
20200531060334 25 86 0.0 0.0 0.00 0.03 0.00 90 1016.0
20200531055824 25 86 0.0 0.0 0.00 0.03 0.00 90 1016.0
20200531055332 25 86 0.0 0.0 0.00 0.03 0.00 90 1016.1
20200531054846 25 86 0.0 0.0 0.00 0.03 0.00 90 1016.0
20200531054313 25 86 0.0 0.0 0.00 0.03 0.00 90 1016.1
20200531053819 25 86 0.0 0.0 0.00 0.03 0.00 90 1016.2
20200531053321 25 86 0.0 0.0 0.00 0.03 0.00 90 1016.2
20200531052823 25 86 0.0 0.0 0.00 0.03 0.00 90 1016.3
20200531052325 25 86 0.0 0.0 0.00 0.03 0.00 89 1016.4
20200531051826 25 86 0.0 0.0 0.00 0.03 0.00 89 1016.5
20200531051324 25 84 0.0 0.0 0.00 0.03 0.00 89 1016.6
20200531050817 25 86 0.0 0.0 0.00 0.03 0.00 88 1016.7
20200531050331 25 86 0.0 0.0 0.00 0.03 0.00 88 1016.7
20200531045816 25 86 0.0 0.0 0.00 0.03 0.00 88 1016.8
20200531045313 26 84 0.0 0.0 0.00 0.03 0.00 87 1016.8
20200531044813 26 86 0.0 0.0 0.00 0.03 0.00 87 1016.7
20200531044330 26 119 0.0 0.0 0.00 0.03 0.00 87 1016.7
20200531043828 26 118 0.0 0.0 0.00 0.03 0.00 86 1016.7
20200531043328 26 118 0.0 0.0 0.00 0.03 0.00 86 1016.7
20200531042827 26 119 0.0 0.0 0.00 0.03 0.00 86 1016.7
20200531042328 26 124 0.0 0.0 0.00 0.03 0.00 86 1016.8
20200531041836 26 126 0.0 1.6 0.00 0.03 0.00 85 1016.8
20200531041333 26 126 0.0 1.6 0.00 0.03 0.00 85 1016.8
20200531040815 26 114 0.0 0.0 0.00 0.03 0.03 85 1016.9
20200531040317 26 105 0.0 0.0 0.00 0.03 0.03 84 1017.0
20200531035820 26 119 0.0 1.6 0.00 0.03 0.03 84 1016.9
20200531035320 26 79 0.0 1.6 0.00 0.03 0.03 84 1016.9
20200531034822 26 117 0.0 1.6 0.00 0.03 0.03 84 1017.0
20200531034325 26 105 0.0 3.2 0.00 0.03 0.03 84 1017.1
20200531033827 26 115 0.0 3.2 0.00 0.03 0.03 83 1017.1
20200531033330 26 112 0.0 1.6 0.00 0.03 0.03 83 1017.2
20200531032813 27 124 0.0 3.2 0.00 0.03 0.03 83 1017.2
20200531032315 27 115 0.0 3.2 0.00 0.03 0.03 83 1017.3
20200531031818 27 134 0.0 3.2 0.00 0.03 0.03 83 1017.3
20200531031319 27 98 0.0 3.2 0.00 0.03 0.03 83 1017.2
20200531030821 27 80 0.0 4.8 0.00 0.03 0.03 84 1017.3
20200531030323 27 103 0.0 4.8 0.00 0.03 0.03 84 1017.2
20200531025827 27 84 0.0 6.4 0.00 0.03 0.03 84 1017.2
20200531025328 27 103 0.0 0.0 0.00 0.03 0.03 84 1017.1
20200531024830 27 112 0.0 4.8 0.00 0.03 0.03 83 1017.0
20200531024332 27 77 0.0 4.8 0.00 0.03 0.03 83 1017.0
20200531023839 27 114 0.0 3.2 0.00 0.03 0.03 83 1017.0
20200531023321 27 82 0.0 3.2 0.00 0.03 0.03 83 1017.1
20200531022821 27 75 0.0 6.4 0.00 0.03 0.03 83 1017.1
20200531022320 27 91 1.6 6.4 0.00 0.03 0.03 83 1017.0
20200531021820 27 114 0.0 4.8 0.00 0.03 0.03 83 1016.9
20200531021321 27 77 0.0 6.4 0.00 0.03 0.03 83 1016.9
20200531020823 27 76 0.0 6.4 0.00 0.03 0.03 83 1016.9
20200531020323 27 100 0.0 6.4 0.00 0.03 0.03 83 1016.8
20200531015820 27 79 1.6 6.4 0.00 0.03 0.03 83 1016.7
20200531015333 27 63 0.0 3.2 0.00 0.03 0.03 83 1016.6
20200531014833 27 125 0.0 4.8 0.00 0.03 0.03 83 1016.6
20200531014332 27 62 1.6 4.8 0.00 0.03 0.03 82 1016.5
20200531013830 27 84 0.0 6.4 0.00 0.03 0.03 83 1016.4
20200531013328 27 113 0.0 6.4 0.00 0.03 0.03 83 1016.3
20200531012826 27 124 0.0 9.7 0.00 0.03 0.03 83 1016.1
20200531012322 27 109 1.6 9.7 0.00 0.03 0.03 82 1016.1
20200531011821 27 83 1.6 9.7 0.00 0.03 0.03 83 1016.2
20200531011321 27 105 1.6 9.7 0.00 0.03 0.03 82 1016.1
20200531010822 27 120 1.6 9.7 0.00 0.03 0.03 82 1016.1
20200531010324 27 86 3.2 8.0 0.00 0.03 0.03 82 1016.1
20200531005820 27 100 0.0 3.2 0.00 0.03 0.03 82 1015.9
20200531005320 27 100 0.0 0.0 0.00 0.03 0.03 82 1016.0
20200531004820 27 100 0.0 9.7 0.00 0.03 0.03 81 1015.9
20200531004322 27 72 0.0 9.7 0.00 0.03 0.03 81 1015.9
20200531003824 27 89 1.6 4.8 0.00 0.03 0.03 80 1015.9
20200531003326 27 104 0.0 6.4 0.00 0.03 0.03 80 1015.8
20200531002828 27 121 0.0 11.3 0.00 0.03 0.03 79 1015.7
20200531002315 27 61 4.8 11.3 0.00 0.03 0.03 79 1015.6
20200531001852 28 84 3.2 11.3 0.00 0.03 0.03 79 1015.6
20200531001323 28 68 3.2 9.7 0.00 0.03 0.03 78 1015.4
20200531000820 28 125 0.0 8.0 0.00 0.03 0.03 76 1015.3
20200531000321 28 74 3.2 11.3 0.00 0.03 0.03 76 1015.2
20200530235824 28 76 1.6 11.3 0.00 0.03 0.03 76 1015.0
20200530235317 28 95 1.6 8.0 0.00 0.03 0.03 78 1015.0
20200530234818 28 91 1.6 8.0 0.00 0.03 0.03 79 1015.0
20200530234332 28 79 1.6 9.7 0.00 0.03 0.03 79 1015.0
20200530233813 28 78 3.2 9.7 0.00 0.03 0.03 80 1014.9
20200530233315 28 91 1.6 8.0 0.00 0.03 0.03 79 1014.9
20200530232815 28 108 1.6 8.0 0.00 0.03 0.03 78 1014.8
20200530232314 28 98 1.6 9.7 0.00 0.03 0.03 77 1014.7
20200530231814 28 70 3.2 9.7 0.00 0.03 0.03 76 1014.7
20200530231316 28 88 3.2 11.3 0.00 0.03 0.03 75 1014.6
20200530230816 28 61 3.2 8.0 0.00 0.03 0.03 73 1014.6
20200530230318 28 79 0.0 8.0 0.00 0.03 0.03 73 1014.5
20200530225817 28 119 0.0 8.0 0.00 0.03 0.03 72 1014.5
20200530225318 28 111 3.2 12.9 0.00 0.03 0.03 72 1014.6
20200530224821 28 67 3.2 12.9 0.00 0.03 0.03 72 1014.6
20200530224323 28 68 3.2 11.3 0.00 0.03 0.03 72 1014.7
20200530223824 29 75 4.8 9.7 0.00 0.03 0.03 72 1014.7
20200530223338 29 53 4.8 9.7 0.00 0.03 0.03 73 1014.7
20200530222832 29 80 4.8 11.3 0.00 0.03 0.03 73 1014.8
20200530222331 30 89 4.8 11.3 0.00 0.03 0.03 72 1014.8
20200530221832 30 89 4.8 12.9 0.00 0.03 0.03 70 1014.8
20200530221333 30 143 4.8 12.9 0.00 0.03 0.03 69 1014.7
20200530220815 30 88 4.8 9.7 0.00 0.03 0.03 69 1014.7
20200530220318 30 127 3.2 11.3 0.00 0.03 0.03 70 1014.8
20200530215816 30 112 4.8 14.5 0.00 0.03 0.03 71 1014.7
20200530215331 30 77 6.4 14.5 0.00 0.03 0.03 71 1014.6
20200530214832 30 148 6.4 12.9 0.00 0.03 0.03 71 1014.7
20200530214329 31 116 3.2 12.9 0.00 0.03 0.03 70 1014.6
20200530213829 30 67 6.4 14.5 0.00 0.03 0.03 68 1014.5
20200530213331 31 83 6.4 14.5 0.00 0.03 0.03 66 1014.6
20200530212813 31 88 4.8 11.3 0.00 0.03 0.03 67 1014.5
20200530212313 31 97 3.2 16.1 0.00 0.03 0.03 65 1014.5
20200530211813 31 62 6.4 16.1 0.00 0.03 0.03 66 1014.5
20200530211313 31 95 3.2 12.9 0.00 0.03 0.03 65 1014.6
20200530210832 31 85 4.8 12.9 0.00 0.03 0.03 65 1014.5
20200530210330 31 63 3.2 14.5 0.00 0.03 0.03 65 1014.5
20200530205820 31 75 8.0 16.1 0.00 0.03 0.03 65 1014.5
20200530205335 31 103 4.8 17.7 0.00 0.03 0.03 64 1014.6
20200530204828 31 69 4.8 14.5 0.00 0.03 0.03 63 1014.6
20200530204325 31 75 3.2 16.1 0.00 0.03 0.03 63 1014.7
20200530203828 31 76 3.2 12.9 0.00 0.03 0.03 64 1014.7
20200530203331 31 59 3.2 12.9 0.00 0.03 0.03 63 1014.8
20200530202813 31 122 6.4 14.5 0.00 0.03 0.03 63 1014.9
20200530202316 31 81 6.4 16.1 0.00 0.03 0.03 63 1014.9
20200530201818 31 103 3.2 12.9 0.00 0.03 0.03 64 1014.9
20200530201427 32 82 4.8 12.9 0.00 0.03 0.03 62 1015.0
20200530200820 32 77 8.0 12.9 0.00 0.03 0.03 60 1015.1
20200530200321 32 117 1.6 9.7 0.00 0.03 0.03 61 1015.1
20200530195821 32 89 1.6 8.0 0.00 0.03 0.03 58 1015.2
20200530195321 32 105 1.6 8.0 0.00 0.03 0.03 59 1015.3
20200530194828 32 211 0.0 8.0 0.00 0.03 0.03 61 1015.3
20200530194329 32 65 0.0 11.3 0.00 0.03 0.03 62 1015.3
20200530193831 32 69 3.2 11.3 0.00 0.03 0.03 60 1015.4
20200530193328 32 81 3.2 11.3 0.00 0.03 0.03 60 1015.5
20200530192828 32 160 1.6 11.3 0.00 0.03 0.03 60 1015.5
20200530192329 32 70 3.2 9.7 0.00 0.03 0.03 62 1015.4
20200530191828 32 109 4.8 16.1 0.00 0.03 0.03 63 1015.5
20200530191328 31 70 1.6 16.1 0.00 0.03 0.03 64 1015.5
20200530190827 31 113 3.2 9.7 0.00 0.03 0.03 63 1015.5
20200530190324 31 51 0.0 12.9 0.00 0.03 0.03 65 1015.6
20200530185822 31 42 4.8 14.5 0.00 0.03 0.03 63 1015.6
20200530185323 31 79 4.8 14.5 0.00 0.03 0.03 64 1015.6
20200530184823 32 127 4.8 12.9 0.00 0.03 0.03 65 1015.7
20200530184330 31 76 3.2 12.9 0.00 0.03 0.03 66 1015.8
20200530183830 31 118 4.8 11.3 0.00 0.03 0.03 65 1015.9
20200530183328 31 104 4.8 14.5 0.00 0.03 0.03 65 1015.9
20200530182843 32 72 4.8 14.5 0.00 0.03 0.03 65 1015.9
20200530182329 32 75 3.2 12.9 0.00 0.03 0.03 65 1015.9
20200530181831 32 82 8.0 16.1 0.00 0.03 0.03 65 1016.0
20200530181327 31 210 4.8 16.1 0.00 0.03 0.03 67 1016.0
20200530180836 32 63 3.2 11.3 0.00 0.03 0.03 66 1015.9
20200530180329 32 136 1.6 12.9 0.00 0.03 0.03 68 1016.0
20200530175828 31 86 6.4 14.5 0.00 0.03 0.03 67 1016.0
20200530175314 31 194 3.2 14.5 0.00 0.03 0.03 66 1016.1
20200530174816 31 86 3.2 9.7 0.00 0.03 0.03 66 1016.1
20200530174318 32 82 3.2 11.3 0.00 0.03 0.03 65 1016.1
20200530173821 32 87 4.8 12.9 0.00 0.03 0.03 66 1016.1
20200530173319 32 83 6.4 17.7 0.00 0.03 0.03 65 1016.2
20200530172821 32 101 6.4 19.3 0.00 0.03 0.03 65 1016.3
20200530172321 31 174 3.2 14.5 0.00 0.03 0.03 68 1016.3
20200530171820 31 112 8.0 14.5 0.00 0.03 0.03 66 1016.4
20200530171317 31 120 8.0 14.5 0.00 0.03 0.03 66 1016.4
20200530170817 32 108 6.4 12.9 0.00 0.03 0.03 66 1016.5
20200530170318 31 129 6.4 12.9 0.00 0.03 0.03 66 1016.5
20200530165818 31 66 4.8 14.5 0.00 0.03 0.03 67 1016.6
20200530165318 31 145 6.4 14.5 0.00 0.03 0.03 67 1016.6
20200530164824 31 76 1.6 14.5 0.00 0.03 0.03 66 1016.7
20200530164320 31 283 3.2 12.9 0.00 0.03 0.03 69 1016.7
20200530163820 31 185 6.4 12.9 0.00 0.03 0.03 68 1016.8
20200530163320 31 59 3.2 16.1 0.00 0.03 0.03 70 1016.7
20200530162830 31 68 4.8 16.1 0.00 0.03 0.03 68 1016.7
20200530162327 32 266 3.2 11.3 0.00 0.03 0.03 67 1016.7
20200530161828 32 55 1.6 12.9 0.00 0.03 0.03 68 1016.7
20200530161328 31 143 0.0 12.9 0.00 0.03 0.03 72 1016.7
20200530160827 31 102 4.8 11.3 0.00 0.03 0.03 69 1016.7
20200530160326 31 139 4.8 12.9 0.00 0.03 0.03 70 1016.8
20200530155821 31 120 6.4 17.7 0.00 0.03 0.03 68 1016.8
20200530155332 31 208 3.2 17.7 0.00 0.03 0.03 69 1016.8
20200530154828 31 96 3.2 12.9 0.00 0.03 0.03 67 1016.8
20200530154330 31 122 3.2 8.0 0.00 0.03 0.03 67 1016.9
20200530153832 31 97 4.8 9.7 0.00 0.03 0.03 65 1017.0
20200530153315 31 113 1.6 9.7 0.00 0.03 0.03 64 1017.0
20200530152818 31 56 4.8 11.3 0.00 0.03 0.03 63 1017.0
20200530152329 31 271 0.0 11.3 0.00 0.03 0.03 64 1017.0
20200530151823 31 82 1.6 8.0 0.00 0.03 0.03 64 1017.1
20200530151317 31 88 1.6 11.3 0.00 0.03 0.03 69 1017.1
20200530150828 31 62 1.6 11.3 0.00 0.03 0.03 69 1017.1
20200530150330 31 229 1.6 8.0 0.00 0.03 0.03 70 1017.1
20200530145830 30 70 1.6 8.0 0.00 0.03 0.03 68 1017.1
20200530145321 30 118 0.0 9.7 0.00 0.03 0.03 70 1017.1
20200530144829 30 95 0.0 11.3 0.00 0.03 0.03 72 1017.2
20200530144317 30 68 1.6 11.3 0.00 0.03 0.03 72 1017.1
20200530143819 30 84 4.8 9.7 0.00 0.03 0.03 71 1017.1
20200530143319 30 40 0.0 8.0 0.00 0.03 0.03 73 1017.1
20200530142835 30 110 0.0 6.4 0.00 0.03 0.03 72 1017.1
20200530142345 30 94 0.0 9.7 0.00 0.03 0.03 73 1017.1
20200530141824 30 103 3.2 9.7 0.00 0.03 0.03 71 1017.2
20200530141335 30 82 4.8 9.7 0.00 0.03 0.03 71 1017.2
20200530140837 30 123 1.6 8.0 0.00 0.03 0.03 69 1017.2
20200530140328 30 142 3.2 8.0 0.00 0.03 0.03 69 1017.2
20200530135825 30 49 0.0 4.8 0.00 0.03 0.03 71 1017.3
20200530135318 30 73 0.0 8.0 0.00 0.03 0.03 71 1017.2
20200530134820 30 109 1.6 8.0 0.00 0.03 0.03 71 1017.2
20200530134319 30 113 0.0 8.0 0.00 0.03 0.03 73 1017.2
20200530133817 30 94 0.0 4.8 0.00 0.03 0.03 75 1017.2
20200530133318 29 111 0.0 9.7 0.00 0.03 0.03 76 1017.2
20200530132817 29 73 1.6 9.7 0.00 0.03 0.03 75 1017.2
20200530132320 29 79 3.2 6.4 0.00 0.03 0.03 76 1017.2
20200530131820 29 77 1.6 6.4 0.00 0.03 0.03 78 1017.2
20200530131318 29 131 1.6 8.0 0.00 0.03 0.03 78 1017.2
20200530130818 29 108 0.0 8.0 0.00 0.03 0.03 79 1017.2
20200530130320 28 106 1.6 9.7 0.00 0.03 0.03 79 1017.2
20200530125820 28 134 3.2 9.7 0.00 0.03 0.03 79 1017.2
20200530125330 28 136 0.0 8.0 0.00 0.03 0.03 81 1017.1
20200530124831 28 97 0.0 8.0 0.00 0.03 0.03 82 1017.1
20200530124314 28 89 0.0 6.4 0.00 0.03 0.03 83 1017.0
20200530123817 27 121 1.6 6.4 0.00 0.03 0.03 83 1017.1
20200530123320 27 112 0.0 3.2 0.00 0.03 0.03 85 1017.1
20200530122822 27 109 0.0 3.2 0.00 0.03 0.03 84 1017.1
20200530122323 27 86 0.0 3.2 0.00 0.03 0.03 84 1017.1
20200530121819 27 95 0.0 6.4 0.00 0.03 0.03 84 1017.1
20200530121332 27 76 1.6 6.4 0.00 0.03 0.03 84 1017.1
20200530120824 27 97 0.0 3.2 0.00 0.03 0.03 84 1017.1
20200530120322 27 108 0.0 4.8 0.00 0.03 0.03 85 1017.0
20200530115835 27 111 1.6 4.8 0.00 0.03 0.03 85 1016.9
20200530115322 27 105 0.0 4.8 0.00 0.03 0.03 86 1016.7
20200530114824 27 84 1.6 4.8 0.00 0.03 0.03 86 1016.6
20200530114326 27 82 0.0 3.2 0.00 0.03 0.03 86 1016.6
20200530113828 27 84 0.0 1.6 0.00 0.03 0.03 86 1016.7
20200530113330 27 96 0.0 1.6 0.00 0.03 0.03 87 1016.6
20200530112833 26 105 0.0 1.6 0.00 0.03 0.03 87 1016.6
20200530112335 26 118 0.0 1.6 0.00 0.03 0.03 88 1016.6
20200530111831 26 110 0.0 0.0 0.00 0.03 0.03 89 1016.4
20200530111313 26 100 0.0 0.0 0.00 0.03 0.03 89 1016.4
20200530110816 25 103 0.0 0.0 0.00 0.03 0.03 90 1016.4
20200530110318 25 103 0.0 0.0 0.00 0.03 0.03 90 1016.3
20200530105820 25 105 0.0 0.0 0.00 0.03 0.03 90 1016.4
20200530105322 25 108 0.0 0.0 0.00 0.03 0.03 91 1016.4
20200530104820 25 108 0.0 0.0 0.00 0.03 0.03 91 1016.4
20200530104404 25 109 0.0 0.0 0.00 0.03 0.03 91 1016.4
20200530103824 25 109 0.0 0.0 0.00 0.03 0.03 90 1016.4
20200530103327 25 108 0.0 0.0 0.00 0.03 0.03 90 1016.3
20200530102830 25 108 0.0 1.6 0.00 0.03 0.03 90 1016.3
20200530102415 25 107 0.0 1.6 0.00 0.03 0.03 90 1016.3
20200530101815 25 114 0.0 0.0 0.00 0.03 0.03 90 1016.2
20200530101337 25 151 0.0 0.0 0.00 0.03 0.03 90 1016.3
20200530100824 25 150 0.0 0.0 0.00 0.03 0.03 90 1016.1
20200530100331 25 150 0.0 0.0 0.00 0.03 0.03 90 1015.9
20200530095831 25 146 0.0 1.6 0.00 0.03 0.03 89 1015.8
20200530095333 26 194 0.0 1.6 0.00 0.03 0.03 89 1015.7
20200530094815 26 144 0.0 3.2 0.00 0.03 0.03 89 1015.6
20200530094318 25 134 0.0 3.2 0.00 0.03 0.03 89 1015.6
20200530093829 26 146 0.0 3.2 0.00 0.03 0.03 89 1015.7
20200530093332 26 143 0.0 4.8 0.00 0.03 0.03 89 1015.6
20200530092823 26 169 1.6 4.8 0.00 0.03 0.03 89 1015.6
20200530092336 26 134 1.6 6.4 0.00 0.03 0.03 89 1015.7
20200530091825 26 150 0.0 6.4 0.00 0.03 0.03 90 1015.8
20200530091325 26 156 0.0 6.4 0.00 0.03 0.03 90 1015.9
20200530090822 25 146 1.6 6.4 0.00 0.03 0.03 91 1016.0
20200530090320 25 148 0.0 3.2 0.00 0.03 0.03 91 1015.9
20200530085815 25 156 0.0 3.2 0.00 0.03 0.03 91 1015.9
20200530085333 25 149 0.0 1.6 0.00 0.03 0.03 91 1016.0
20200530084832 25 142 0.0 3.2 0.00 0.03 0.03 91 1016.0
20200530084331 25 146 0.0 9.7 0.00 0.03 0.03 91 1016.0
20200530083828 25 149 0.0 9.7 0.00 0.03 0.03 91 1016.1
20200530083319 25 160 0.0 1.6 0.00 0.03 0.03 92 1016.1
20200530082821 25 142 0.0 1.6 0.00 0.03 0.03 92 1016.1
20200530082322 25 146 0.0 0.0 0.00 0.03 0.03 92 1016.1
20200530081820 25 146 0.0 0.0 0.00 0.03 0.03 92 1016.2
20200530081321 25 148 0.0 0.0 0.00 0.03 0.03 92 1016.2
20200530080823 25 145 0.0 0.0 0.00 0.03 0.03 92 1016.3
20200530080322 25 144 0.0 0.0 0.00 0.03 0.03 92 1016.4